Baker, MT

1:36 PM MDT on May 25, 2018 (GMT -0600)
Baker Municipal

Weather History for KBHK - October, 2014

Change the Weather History Date:

Thursday, October 9, 2014

  Actual Average Record
Temperature  
Mean Temperature 44 °F -  
Max Temperature 57 °F 55 °F 84 °F (2003)
Min Temperature 32 °F 33 °F 19 °F (2008)
Degree Days  
Heating Degree Days 20    
Moisture  
Dew Point 33 °F    
Average Humidity 73    
Maximum Humidity 92    
Minimum Humidity 44    
Precipitation  
Precipitation 0.00 in - - ()
Sea Level Pressure  
Sea Level Pressure 30.24 in    
Wind  
Wind Speed 8 mph (ESE)    
Max Wind Speed 15 mph    
Max Gust Speed -    
Visibility 10 miles    
Events      
Averages and records for this station are not official NWS values.
T = Trace of Precipitation, MM = Missing Value Source: NWS Daily Summary

Daily Weather History Graph

Daily Weather History Graph

Search for Another Location

Airport or City:

Astronomy

Oct. 09, 2014 Rise Set
Actual Time 7:06 AM MDT 6:21 PM MDT
Civil Twilight 6:36 AM MDT 6:51 PM MDT
Nautical Twilight 6:01 AM MDT 7:26 PM MDT
Astronomical Twilight 5:26 AM MDT 8:01 PM MDT
Moon 7:13 PM MDT (10/9) 8:28 AM MDT (10/9)
Length of Visible Light 12h 15m
Length of Day
11h 15m
Full, 98% of the Moon is Illuminated
Oct 9
Full
Oct 15
Last Quarter
Oct 23
New
Oct 30
First Quarter
Nov 6
Full

Hourly Weather History & Observations

Time (MDT) Temp. Windchill Dew Point Humidity Pressure Visibility Wind Dir Wind Speed Gust Speed Precip Events Conditions
12:51 AM 36.0 °F 31.1 °F 33.1 °F 89% 30.14 in 10.0 mi ESE 5.8 mph - N/A   Clear
1:51 AM 35.1 °F 29.3 °F 32.0 °F 89% 30.14 in 10.0 mi ESE 6.9 mph - N/A   Clear
2:51 AM 34.0 °F 27.2 °F 30.9 °F 89% 30.14 in 10.0 mi East 8.1 mph - N/A   Clear
3:51 AM 35.1 °F 29.3 °F 32.0 °F 89% 30.15 in 10.0 mi ESE 6.9 mph - N/A   Scattered Clouds
4:51 AM 34.0 °F 28.0 °F 30.9 °F 89% 30.16 in 10.0 mi ESE 6.9 mph - N/A   Clear
5:51 AM 33.1 °F 28.7 °F 30.0 °F 89% 30.19 in 10.0 mi East 4.6 mph - N/A   Clear
6:51 AM 33.1 °F 27.7 °F 30.0 °F 89% 30.22 in 10.0 mi SE 5.8 mph - N/A   Clear
7:51 AM 37.0 °F 31.6 °F 33.1 °F 86% 30.23 in 10.0 mi ESE 6.9 mph - N/A   Clear
8:51 AM 39.9 °F 32.9 °F 34.0 °F 79% 30.26 in 10.0 mi ESE 11.5 mph - N/A   Clear
9:51 AM 43.0 °F 35.7 °F 33.1 °F 68% 30.27 in 10.0 mi SE 15.0 mph - N/A   Clear
10:51 AM 46.9 °F - 30.9 °F 54% 30.27 in 10.0 mi ESE 15.0 mph - N/A   Clear
11:51 AM 51.1 °F - 33.1 °F 50% 30.27 in 10.0 mi ESE 11.5 mph - N/A   Clear
12:51 PM 55.0 °F - 35.1 °F 47% 30.26 in 10.0 mi ESE 12.7 mph - N/A   Clear
1:51 PM 55.0 °F - 35.1 °F 47% 30.25 in 10.0 mi ESE 12.7 mph - N/A   Clear
2:51 PM 55.9 °F - 36.0 °F 47% 30.24 in 10.0 mi ESE 9.2 mph - N/A   Clear
3:51 PM 57.9 °F - 36.0 °F 44% 30.23 in 10.0 mi East 8.1 mph - N/A   Clear
4:51 PM 55.9 °F - 35.1 °F 45% 30.24 in 10.0 mi ESE 11.5 mph - N/A   Clear
5:51 PM 53.1 °F - 35.1 °F 50% 30.25 in 10.0 mi SE 9.2 mph - N/A   Clear
6:51 PM 41.0 °F 38.0 °F 33.1 °F 73% 30.28 in 10.0 mi SE 4.6 mph - N/A   Clear
7:51 PM 36.0 °F 31.1 °F 32.0 °F 86% 30.29 in 10.0 mi SE 5.8 mph - N/A   Clear
8:51 PM 36.0 °F 30.3 °F 30.9 °F 82% 30.30 in 10.0 mi SE 6.9 mph - N/A   Clear
9:51 PM 34.0 °F 29.8 °F 30.9 °F 89% 30.30 in 10.0 mi SE 4.6 mph - N/A   Clear
10:51 PM 32.0 °F 24.8 °F 30.0 °F 92% 30.30 in 10.0 mi SE 8.1 mph - N/A   Clear
11:51 PM 32.0 °F 24.2 °F 30.0 °F 92% 30.29 in 10.0 mi SE 9.2 mph - N/A   Clear